Regional Weather Roundup
Issued by NWS

Home | Current Version | Previous Version | Text Only | Print | Product List | Glossary On
Versions: 1 2 3 4 5 6 7 8 9 10 11 12 13 14 15 16 17 18 19 20 21 22 23 24 25 26 27 28 29 30 31 32 33 34 35 36 37 38 39 40 41 42 43 44 45 46 47 48 49 50
000
ASUS43 KTOP 041759
RWRKS

WEATHER ROUNDUP FOR KANSAS
NATIONAL WEATHER SERVICE GOODLAND KS
100 PM CDT FRI SEP 04 2015

NOTE:  "FAIR" INDICATES FEW OR NO CLOUDS BELOW 12,000 FEET WITH NO
SIGNIFICANT WEATHER AND/OR OBSTRUCTIONS TO VISIBILITY.

KSZ001>006-013>018-027>032-041>047-041900-
NORTHWEST KANSAS

CITY           SKY/WX    TMP DP  RH WIND       PRES   REMARKS
GOODLAND       SUNNY     90  48  23 W10       29.93F
6HR MIN TEMP:  61; 6HR MAX TEMP:  91;

HAYS           SUNNY     93  61  33 S21G30    29.87S
HILL CITY      SUNNY     94  58  29 SW12      29.85F
6HR MIN TEMP:  72; 6HR MAX TEMP:  94;

RUSSELL        MOSUNNY   93  62  35 S26G36    29.86F
6HR MIN TEMP:  75; 6HR MAX TEMP:  93;

$$

KSZ061>065-074>080-084>089-041900-
SOUTHWEST KANSAS

CITY           SKY/WX    TMP DP  RH WIND       PRES   REMARKS
DODGE CITY     MOSUNNY   92  57  30 S22G29    29.93F
6HR MIN TEMP:  68; 6HR MAX TEMP:  92;

ELKHART          N/A     88  57  34 SE8         N/A
GARDEN CITY    MOSUNNY   89  56  32 S13G21    29.92S
6HR MIN TEMP:  65; 6HR MAX TEMP:  89;

GREAT BEND     MOSUNNY   93  63  36 S28       29.88F
LIBERAL        PTSUNNY   88  55  33 S13G24    29.95S
$$

KSZ066>073-081>083-090>101-041900-
SOUTHEAST KANSAS

CITY           SKY/WX    TMP DP  RH WIND       PRES   REMARKS
CHANUTE        MOSUNNY   87  70  56 S14       30.00F
6HR MIN TEMP:  69; 6HR MAX TEMP:  88;

COFFEYVILLE    MOSUNNY   87  71  58 S8        29.99F
6HR MIN TEMP:  69; 6HR MAX TEMP:  88;

HUTCHINSON     SUNNY     92  66  42 S15G25    29.94F
6HR MIN TEMP:  71; 6HR MAX TEMP:  92;

NEWTON         SUNNY     90  64  43 S20       29.98F
PARSONS        SUNNY     87  73  62 S10       30.01F
6HR MIN TEMP:  71; 6HR MAX TEMP:  87;

WICHITA INTL   MOSUNNY   91  66  43 S20G25    29.94F
6HR MIN TEMP:  70; 6HR MAX TEMP:  91;

WICHITA JABRA  SUNNY     88  68  51 S15G24    29.96F
6HR MIN TEMP:  69; 6HR MAX TEMP:  88;

WICHITA MCCONL SUNNY     89  66  46 S17       29.96F
WINFIELD       MOSUNNY   91  67  44 S9G20     29.98F
6HR MIN TEMP:  70; 6HR MAX TEMP:  92;

$$

KSZ007>012-019>026-033>040-048>060-102>105-041900-
NORTHEAST KANSAS

CITY           SKY/WX    TMP DP  RH WIND       PRES   REMARKS
CONCORDIA      SUNNY     91  65  41 S23G33    29.89F
6HR MIN TEMP:  74; 6HR MAX TEMP:  91;

EMPORIA        SUNNY     88  65  46 S17G26    29.97F
6HR MIN TEMP:  69; 6HR MAX TEMP:  88;

LAWRENCE       SUNNY     91  69  48 S15       29.97F HX  96
6HR MIN TEMP:  70; 6HR MAX TEMP:  91;

MANHATTAN      SUNNY     92  63  38 S20       29.92F
6HR MIN TEMP:  72; 6HR MAX TEMP:  94;

OLATHE IND     SUNNY     88  69  53 S12G21    30.00F
6HR MIN TEMP:  70; 6HR MAX TEMP:  88;

OLATHE EXE     SUNNY     86  68  54 S13G21    29.99F
6HR MIN TEMP:  69; 6HR MAX TEMP:  86;

SALINA         SUNNY     93  66  40 S22G32    29.91F HX  96
6HR MIN TEMP:  75; 6HR MAX TEMP:  93;

TOPEKA BILLARD SUNNY     89  67  47 S14G24    29.95F
6HR MIN TEMP:  73; 6HR MAX TEMP:  90;

TOPEKA FORBES  SUNNY     89  68  49 S15       29.96F
6HR MIN TEMP:  72; 6HR MAX TEMP:  90;

$$



USA.gov is the U.S. government's official web portal to all federal, state and local government web resources and services.